Date,TemperatureHighF,TemperatureAvgF,TemperatureLowF,DewpointHighF,DewpointAvgF,DewpointLowF,HumidityHigh,HumidityAvg,HumidityLow,PressureMaxIn,PressureMinIn,WindSpeedMaxMPH,WindSpeedAvgMPH,GustSpeedMaxMPH,PrecipitationSumIn
2013-1-30,-200.0,0.0,200.0,-99.9,-99.9,-99.9,0,0,100,29.93,0.00,0,-999,0,0.00
2013-1-31,-200.0,0.0,200.0,-99.9,-99.9,-99.9,0,0,100,30.18,29.94,0,-999,0,0.00
2013-2-1,-200.0,0.0,200.0,-99.9,-99.9,-99.9,0,0,100,30.45,30.18,0,-999,0,0.00
2013-2-2,-200.0,0.0,200.0,-99.9,-99.9,-99.9,0,0,100,30.37,30.14,0,-999,0,0.00
2013-2-3,-200.0,0.0,200.0,-99.9,-99.9,-99.9,0,0,100,30.18,30.08,0,-999,0,0.00
2013-2-4,-200.0,0.0,200.0,-99.9,-99.9,-99.9,0,0,100,30.16,29.99,0,-999,0,0.00
2013-2-5,57.9,23.2,49.1,49.0,-34.3,-99.9,93,38,66,30.11,29.97,9,-555,0,0.00
2013-2-6,61.9,51.0,38.4,47.0,39.4,34.0,97,69,39,30.25,30.11,7,1,0,0.01
2013-2-7,53.3,49.8,47.2,48.0,43.5,34.0,95,80,49,30.17,29.99,17,6,0,0.07
2013-2-8,47.5,43.0,33.2,47.0,40.3,30.0,100,90,76,30.33,29.97,12,3,0,0.21
2013-2-9,59.0,44.1,31.1,33.0,29.9,27.0,90,62,30,30.40,30.25,13,4,0,0.21
2013-2-10,54.9,50.7,47.0,54.0,42.2,31.0,96,75,50,30.26,30.00,22,11,0,0.96
2013-2-11,55.0,51.3,44.0,54.0,46.2,36.0,97,83,65,30.21,30.04,11,1,0,0.01
2013-2-12,48.1,43.9,41.1,40.0,35.8,31.0,90,74,54,30.21,29.86,13,3,0,0.30
2013-2-13,44.9,41.6,37.5,44.0,39.1,35.0,97,91,83,30.09,29.76,17,4,0,0.02
2013-2-14,54.6,44.0,33.9,39.0,35.8,31.0,92,74,51,30.16,30.09,6,1,0,0.02
2013-2-15,54.7,45.4,37.9,41.0,35.9,30.0,82,70,51,30.19,30.10,9,2,0,0.00
2013-2-16,37.8,31.8,26.9,30.0,20.3,14.0,79,64,42,30.31,30.13,12,4,0,0.00
2013-2-17,44.5,33.8,22.5,21.0,16.1,12.0,69,50,30,30.42,30.31,9,1,0,0.00
2013-2-18,56.4,46.4,34.6,37.0,27.8,19.0,73,49,42,30.38,30.02,19,7,0,0.02
2013-2-19,49.9,43.4,35.3,44.0,30.9,16.0,96,66,31,30.29,30.00,15,4,0,0.05
2013-2-20,35.3,32.0,28.7,21.0,20.4,19.0,70,62,56,30.34,30.25,4,1,0,0.05